Location: Guilderland
(42.7045°N, 73.9115°W)
Time: 04:23:45
(UTC+00:00)

Envisat - Pass Details

Date: 24 January 2020
Orbit: 764 x 766 km, 98.1° (Epoch: 17 February)

Event Time Altitude Azimuth Distance (km) Brightness Sun altitude
Rises 23:04:23 0° 177° (S) 3,218 6.4 -12.3°
Reaches altitude 10° 23:06:43 10° 182° (S) 2,296 5.7 -12.7°
Maximum altitude 23:11:41 56° 260° (W) 914 3.8 -13.6°
Drops below altitude 10° 23:16:41 10° 338° (NNW) 2,312 5.6 -14.5°
Sets 23:19:03 0° 343° (NNW) 3,242 6.3 -14.9°
